S56IAR-13 Weather Reports


time (UTC)temp
F
wind
direction
speed
knots
gust
knots
rain 1hr
in
rain 24hr
in
rain mn
in
humidity
%
barometer
mb
20260507075003 60 167 0.9 2.6 0.00 0.56 0.00 82 959.8
20260507074715 60 155 0.0 2.6 0.00 0.56 0.00 84 959.9
20260507074003 59 62 0.0 2.6 0.00 0.56 0.00 88 959.9
20260507073505 59 70 0.0 2.6 0.00 0.56 0.00 87 959.7
20260507073213 59 66 0.0 2.6 0.00 0.56 0.00 82 959.6
20260507072504 57 77 0.0 0.9 0.00 0.56 0.00 90 959.7
20260507072005 56 90 0.0 0.9 0.00 0.56 0.00 96 959.7
20260507071504 54 97 0.0 1.7 0.00 0.56 0.00 99 959.7
20260507071003 54 70 0.0 3.5 0.00 0.56 0.00 99 959.7
20260507070505 53 64 0.0 3.5 0.00 0.56 0.00 99 959.8
20260507065503 53 138 0.0 0.9 0.00 0.56 0.00 99 959.9
20260507065005 53 0 0.0 0.0 0.00 0.56 0.00 99 959.6
20260507064503 53 0 0.0 0.0 0.00 0.56 0.00 99 959.7
20260507064215 54 0 0.0 0.0 0.00 0.56 0.00 99 959.8
20260507063503 54 0 0.0 0.0 0.00 0.56 0.00 99 959.7
20260507063005 53 0 0.0 0.0 0.00 0.56 0.00 99 959.8
20260507062714 53 0 0.0 0.0 0.00 0.56 0.00 99 959.7
20260507062213 52 0 0.0 0.0 0.00 0.56 0.00 99 959.9
20260507061505 51 0 0.0 0.0 0.00 0.56 0.00 99 959.6
20260507061213 51 0 0.0 0.0 0.00 0.56 0.00 99 959.8
20260507060714 51 0 0.0 0.0 0.00 0.56 0.00 99 959.5
20260507055503 50 0 0.0 0.0 0.00 0.56 0.00 99 959.6
20260507055005 50 0 0.0 0.0 0.00 0.56 0.00 99 959.5
20260507054503 50 0 0.0 0.0 0.00 0.56 0.00 99 959.4
20260507054005 49 0 0.0 0.0 0.00 0.56 0.00 99 959.7
20260507053503 49 0 0.0 0.0 0.00 0.56 0.00 99 959.6
20260507053214 49 0 0.0 0.0 0.00 0.56 0.00 99 959.3
20260507052713 49 0 0.0 0.0 0.00 0.56 0.00 99 959.2
20260507052003 48 0 0.0 0.0 0.00 0.56 0.00 99 959.3
20260507051505 48 0 0.0 0.0 0.00 0.56 0.00 99 959.2
20260507050505 48 0 0.0 0.0 0.00 0.56 0.00 99 958.9
20260507045503 48 175 0.0 1.7 0.00 0.56 0.00 99 958.9
20260507045005 47 165 0.0 1.7 0.00 0.56 0.00 99 959.0
20260507044503 47 0 0.0 0.0 0.00 0.56 0.00 99 959.0
20260507044214 47 203 0.0 0.9 0.00 0.56 0.00 99 959.0
20260507043503 47 203 0.0 0.9 0.00 0.56 0.00 99 959.0
20260507043004 47 0 0.0 0.0 0.00 0.56 0.00 99 958.9
20260507042505 47 0 0.0 0.0 0.00 0.56 0.00 99 959.0
20260507042214 47 0 0.0 0.0 0.00 0.56 0.00 99 959.1
20260507041503 47 203 0.0 1.7 0.00 0.56 0.00 99 958.7
20260507041005 47 202 0.0 1.7 0.00 0.56 0.00 99 958.8
20260507040713 47 202 0.0 1.7 0.00 0.56 0.00 99 958.8
20260507035713 47 208 0.0 0.9 0.00 0.56 0.00 99 958.7
20260507035005 47 208 0.0 0.9 0.00 0.56 0.00 99 958.7
20260507034503 47 208 0.0 0.9 0.00 0.56 0.00 99 958.7
20260507034005 47 202 0.0 1.7 0.00 0.56 0.00 99 958.7
20260507033503 47 201 0.0 1.7 0.00 0.56 0.00 99 958.5
20260507033214 47 201 0.0 1.7 0.00 0.56 0.00 99 958.7
20260507032505 47 0 0.0 0.0 0.00 0.56 0.00 99 958.9
20260507032003 47 0 0.0 0.0 0.00 0.56 0.00 99 958.8
20260507031503 47 168 0.0 1.7 0.00 0.56 0.00 99 958.6
20260507031216 48 168 0.0 1.7 0.00 0.56 0.00 99 958.7
20260507030712 48 157 0.0 1.7 0.00 0.56 0.00 99 958.7
20260507025503 48 0 0.0 0.0 0.00 0.56 0.00 99 958.3
20260507025005 48 0 0.0 0.0 0.00 0.56 0.00 99 958.5
20260507024503 48 0 0.0 0.0 0.00 0.56 0.00 99 958.4
20260507024003 48 0 0.0 0.0 0.00 0.56 0.00 99 958.6
20260507023714 48 0 0.0 0.0 0.00 0.56 0.00 99 958.6
20260507023003 49 105 0.0 0.9 0.00 0.56 0.00 99 958.4
20260507022503 49 104 0.0 0.9 0.00 0.56 0.00 99 958.6
20260507022005 49 103 0.0 0.9 0.00 0.56 0.00 99 958.5
20260507021503 49 0 0.0 0.0 0.00 0.56 0.00 99 958.6
20260507021005 49 0 0.0 0.0 0.00 0.56 0.00 99 958.6
20260507020503 49 0 0.0 0.0 0.00 0.56 0.00 99 958.3
20260507015503 49 75 0.0 0.9 0.00 0.56 0.00 99 958.5
20260507015005 50 84 0.0 0.9 0.00 0.56 0.00 99 958.3
20260507014503 50 114 0.0 0.9 0.00 0.56 0.00 99 958.5
20260507014003 50 114 0.0 0.9 0.00 0.56 0.00 99 958.5
20260507013505 50 0 0.0 0.0 0.00 0.56 0.00 99 958.2
20260507013003 50 210 0.0 0.9 0.00 0.56 0.00 99 958.7
20260507012503 50 210 0.0 0.9 0.00 0.56 0.00 99 958.5
20260507012005 50 0 0.0 0.0 0.00 0.56 0.00 99 958.4
20260507011503 50 210 0.0 1.7 0.00 0.56 0.00 99 958.4
20260507011005 50 199 0.9 2.6 0.00 0.56 0.00 99 958.5
20260507010503 50 184 0.0 2.6 0.00 0.56 0.00 99 958.5
20260507005503 51 0 0.0 0.0 0.00 0.56 0.00 99 958.4
20260507005005 51 150 0.0 0.9 0.00 0.56 0.00 99 958.4
20260507004503 51 171 0.0 1.7 0.00 0.56 0.00 99 958.4
20260507004213 51 179 0.0 1.7 0.00 0.56 0.00 99 958.3
20260507003505 51 149 0.9 2.6 0.00 0.56 0.00 99 958.6
20260507003213 51 154 0.9 2.6 0.00 0.56 0.00 98 958.4
20260507002714 51 119 0.9 2.6 0.00 0.56 0.00 98 958.5
20260507002005 52 112 0.9 6.1 0.00 0.56 0.00 98 958.6
20260507001503 51 116 0.0 2.6 0.00 0.56 0.00 98 958.6
20260507001214 51 126 0.0 1.7 0.00 0.56 0.00 99 958.4
20260507000503 52 130 0.0 1.7 0.00 0.56 0.00 98 958.4
20260506235504 52 150 0.0 1.7 0.00 0.56 0.00 98 958.7
20260506235004 52 145 0.9 5.2 0.00 0.56 0.00 97 958.7
20260506234505 52 153 0.9 5.2 0.00 0.56 0.00 97 958.6
20260506234003 52 156 0.9 3.5 0.00 0.56 0.00 98 958.5
20260506233503 52 146 0.0 1.7 0.00 0.56 0.00 98 958.6
20260506233005 52 103 0.0 1.7 0.00 0.56 0.00 98 958.6
20260506232503 52 105 0.0 1.7 0.00 0.56 0.00 97 958.5
20260506232005 52 142 0.0 2.6 0.00 0.56 0.00 97 958.7
20260506231503 52 144 0.0 2.6 0.00 0.56 0.00 97 958.7
20260506231004 52 124 0.0 1.7 0.00 0.56 0.00 97 959.0
20260506230503 52 141 0.9 2.6 0.00 0.56 0.00 97 958.7
20260506225503 52 169 0.0 1.7 0.00 0.56 0.56 98 958.7
20260506225216 52 118 0.0 2.6 0.00 0.56 0.56 99 958.7
20260506224713 52 127 0.0 2.6 0.00 0.56 0.56 99 958.7
20260506224214 52 153 0.0 2.6 0.00 0.56 0.56 99 958.9
20260506223505 52 166 0.0 1.7 0.00 0.56 0.56 99 958.9
20260506223003 52 177 0.0 1.7 0.00 0.56 0.56 99 958.8
20260506222505 52 184 0.0 1.7 0.00 0.56 0.56 99 959.0
20260506222214 52 184 0.0 1.7 0.00 0.56 0.56 99 959.0
20260506221504 52 180 0.0 0.9 0.00 0.56 0.56 99 958.8
20260506221005 52 189 0.0 0.9 0.00 0.56 0.56 99 958.8
20260506220503 52 0 0.0 0.0 0.00 0.56 0.56 99 958.8
20260506215503 52 58 0.0 1.7 0.00 0.56 0.56 99 958.7
20260506215006 52 62 0.0 1.7 0.00 0.56 0.56 99 958.5
20260506214713 51 217 0.0 0.9 0.00 0.56 0.56 99 958.9
20260506214005 52 217 0.0 0.9 0.00 0.56 0.56 99 958.5
20260506213503 52 0 0.0 0.0 0.00 0.56 0.56 99 958.6
20260506213003 52 0 0.0 0.0 0.00 0.56 0.56 99 958.5
20260506212714 53 199 0.0 1.7 0.00 0.56 0.56 99 958.4
20260506212003 53 203 0.0 1.7 0.00 0.56 0.56 99 958.4
20260506211505 53 214 0.0 0.9 0.00 0.56 0.56 99 958.7
20260506211003 53 0 0.0 0.0 0.00 0.56 0.56 99 958.5
20260506210505 53 0 0.0 0.0 0.00 0.56 0.56 99 958.6
20260506205505 53 0 0.0 0.0 0.00 0.56 0.56 99 958.4
20260506205003 53 0 0.0 0.0 0.00 0.56 0.56 99 958.4
20260506204503 53 0 0.0 0.0 0.00 0.56 0.56 99 958.3
20260506204005 54 0 0.0 0.0 0.00 0.56 0.56 99 958.1
20260506203503 54 146 0.0 0.9 0.00 0.56 0.56 99 958.2
20260506203003 54 59 0.0 1.7 0.00 0.56 0.56 99 958.0
20260506202505 54 67 0.0 1.7 0.00 0.56 0.56 99 958.2
20260506202003 54 101 0.0 2.6 0.00 0.56 0.56 99 958.0
20260506201714 54 92 0.9 2.6 0.00 0.56 0.56 99 958.1
20260506201004 54 104 0.9 2.6 0.02 0.56 0.56 99 958.2
20260506200503 54 118 0.0 2.6 0.07 0.56 0.56 99 958.1
20260506195503 54 119 0.0 2.6 0.07 0.56 0.56 99 957.9
20260506195003 54 129 0.0 2.6 0.08 0.56 0.56 99 957.9
20260506194505 54 160 0.0 2.6 0.08 0.56 0.56 99 957.9
20260506194004 54 99 0.0 3.5 0.08 0.56 0.56 99 957.9
20260506193714 54 99 0.0 3.5 0.08 0.56 0.56 99 957.9
20260506193005 54 94 0.0 1.7 0.11 0.56 0.56 99 957.7
20260506192714 54 78 0.0 0.9 0.19 0.56 0.56 99 957.8
20260506192003 54 91 0.0 1.7 0.21 0.56 0.56 99 957.9
20260506191505 54 57 0.0 2.6 0.22 0.56 0.56 98 957.7
20260506191213 54 86 0.0 2.6 0.21 0.55 0.55 98 957.7
20260506190505 54 99 0.0 1.7 0.15 0.50 0.49 98 957.8
20260506185716 55 83 0.0 1.7 0.15 0.50 0.49 98 957.5
20260506185003 55 93 0.0 1.7 0.14 0.49 0.48 97 957.4
20260506184503 55 118 0.9 6.1 0.14 0.49 0.48 97 957.4
20260506184005 55 107 1.7 6.1 0.14 0.49 0.48 97 957.2
20260506183503 56 87 0.9 5.2 0.14 0.49 0.48 97 957.3
20260506183213 56 81 0.9 5.2 0.13 0.48 0.47 95 957.4
20260506182715 56 74 0.9 2.6 0.03 0.38 0.37 95 957.3
20260506182212 55 79 0.9 5.2 0.02 0.37 0.36 97 957.0
20260506181505 56 62 0.9 5.2 0.00 0.35 0.34 95 957.1
20260506181003 55 49 0.0 3.5 0.00 0.35 0.34 98 957.0
20260506180503 55 74 0.0 2.6 0.00 0.35 0.34 99 956.8
20260506175503 55 65 0.0 0.9 0.00 0.35 0.34 99 956.8
20260506175003 55 64 0.0 1.7 0.00 0.36 0.34 99 956.8
20260506174505 55 73 0.0 1.7 0.00 0.36 0.34 99 956.8
20260506174003 55 73 0.0 1.7 0.00 0.36 0.34 99 956.8
20260506173505 55 0 0.0 0.0 0.00 0.37 0.34 99 956.9
20260506173003 55 0 0.0 0.0 0.00 0.37 0.34 99 956.9
20260506172505 55 78 0.0 0.9 0.00 0.37 0.34 98 957.0
20260506172003 55 167 0.0 1.7 0.00 0.38 0.34 98 957.0
20260506171504 56 177 0.0 1.7 0.00 0.38 0.34 98 957.3
20260506171003 56 111 0.0 5.2 0.00 0.38 0.34 98 957.1
20260506170503 56 98 0.9 5.2 0.00 0.38 0.34 98 957.0
20260506165713 56 91 0.0 0.9 0.00 0.39 0.34 98 957.2
20260506165214 56 0 0.0 0.0 0.00 0.39 0.34 98 957.2
20260506164505 56 159 0.0 0.9 0.00 0.39 0.34 98 957.0
20260506164003 56 127 0.0 0.9 0.00 0.39 0.34 98 957.0
20260506163503 56 97 0.0 0.9 0.00 0.39 0.34 98 957.2
20260506163216 56 95 0.0 0.9 0.00 0.39 0.34 98 957.3
20260506162503 56 0 0.0 0.0 0.00 0.40 0.34 98 957.1
20260506162005 56 105 0.0 1.7 0.00 0.40 0.34 98 957.3
20260506161713 56 92 0.0 1.7 0.00 0.40 0.34 98 957.1
20260506161003 56 86 0.0 1.7 0.00 0.40 0.34 98 957.5
20260506160505 56 58 0.0 0.9 0.00 0.40 0.34 98 957.4
20260506155503 56 60 0.0 0.9 0.00 0.40 0.34 97 957.4
20260506155215 55 79 0.0 0.9 0.00 0.40 0.34 97 957.3
20260506154714 55 113 0.0 0.9 0.00 0.40 0.34 97 957.3
20260506154003 55 56 0.9 2.6 0.00 0.40 0.34 97 957.5
20260506153505 55 49 0.9 2.6 0.00 0.40 0.34 96 957.5
20260506153213 55 39 0.9 2.6 0.00 0.40 0.34 96 957.4
20260506152505 55 35 0.0 2.6 0.00 0.40 0.34 96 957.6
20260506152003 55 37 0.0 2.6 0.00 0.40 0.34 97 957.6
20260506151714 55 39 0.0 2.6 0.00 0.40 0.34 97 957.6
20260506151003 55 98 0.9 2.6 0.00 0.40 0.34 97 957.7
20260506150503 55 102 0.9 3.5 0.00 0.40 0.34 97 957.5
20260506145503 55 335 0.9 6.1 0.03 0.40 0.34 97 957.7
20260506145003 55 15 0.9 6.1 0.03 0.40 0.34 97 957.8
20260506144505 55 3 0.0 1.7 0.03 0.40 0.34 96 957.7
20260506144003 55 304 0.0 1.7 0.03 0.40 0.34 96 957.7
20260506143505 55 15 0.9 1.7 0.03 0.40 0.34 96 957.7
20260506143003 54 41 0.9 1.7 0.03 0.40 0.34 96 957.7
20260506142505 55 206 0.9 3.5 0.03 0.40 0.34 96 957.8
20260506142213 55 264 0.9 3.5 0.03 0.40 0.34 96 957.8
20260506141503 55 352 0.0 1.7 0.03 0.40 0.34 96 957.9
20260506141005 55 0 0.0 0.0 0.03 0.40 0.34 95 957.8
20260506140503 55 120 0.0 0.9 0.03 0.40 0.34 95 957.9
20260506135505 55 359 0.0 0.9 0.01 0.37 0.31 94 957.9
20260506135003 55 6 0.0 1.7 0.01 0.37 0.31 94 958.1
20260506134505 55 332 0.9 3.5 0.01 0.37 0.31 94 958.2
20260506134213 55 276 0.9 3.5 0.01 0.37 0.31 94 958.2
20260506133505 56 274 0.0 0.9 0.01 0.37 0.31 94 958.1
20260506133212 56 259 0.0 1.7 0.01 0.37 0.31 94 958.1
20260506132715 56 163 0.9 2.6 0.01 0.37 0.31 94 958.2
20260506132003 56 114 0.0 2.6 0.01 0.37 0.31 92 958.3
20260506131503 56 226 0.0 1.7 0.01 0.37 0.31 94 958.1
20260506131005 56 206 0.9 3.5 0.01 0.37 0.31 95 958.1
20260506130503 55 224 0.9 6.1 0.01 0.37 0.31 95 958.4
20260506125505 55 6 0.9 6.1 0.00 0.36 0.30 95 958.3
20260506125003 55 171 0.9 6.1 0.00 0.36 0.30 95 958.3
20260506124505 55 140 0.9 6.1 0.00 0.36 0.30 95 958.1
20260506124003 55 34 0.9 5.2 0.00 0.36 0.30 96 958.4
20260506123503 55 17 0.9 2.6 0.00 0.36 0.30 97 958.2
20260506123005 54 82 0.9 5.2 0.00 0.36 0.30 96 958.2
20260506122503 55 127 0.9 5.2 0.00 0.36 0.30 97 958.4
20260506122003 54 82 0.9 5.2 0.01 0.36 0.30 96 958.2
20260506121505 54 77 0.9 2.6 0.02 0.36 0.30 96 958.2
20260506121214 54 79 0.9 2.6 0.03 0.36 0.30 97 958.3
20260506120505 54 86 0.0 2.6 0.03 0.36 0.30 97 958.2
20260506115505 54 62 0.0 1.7 0.03 0.36 0.30 97 958.4
20260506115214 54 61 0.0 1.7 0.03 0.36 0.30 97 958.5
20260506114505 54 72 0.0 1.7 0.03 0.36 0.30 97 958.3
20260506114003 54 9 0.9 3.5 0.03 0.36 0.30 96 958.3
20260506113505 54 39 0.9 3.5 0.03 0.36 0.30 96 958.6
20260506113003 54 41 0.0 1.7 0.03 0.36 0.30 96 958.2
20260506112503 54 341 0.0 1.7 0.03 0.36 0.30 96 958.4
20260506112216 54 344 0.0 1.7 0.02 0.35 0.29 96 958.6
20260506111713 55 270 0.9 2.6 0.01 0.34 0.28 96 958.5
20260506111214 54 315 0.9 2.6 0.00 0.33 0.27 95 958.6
20260506110715 54 359 0.9 2.6 0.00 0.33 0.27 95 958.6
20260506105505 55 57 0.9 5.2 0.01 0.33 0.27 94 958.8
20260506105003 55 65 0.9 2.6 0.01 0.33 0.27 94 958.8
20260506104714 54 63 0.9 2.6 0.01 0.33 0.27 94 958.8
20260506104213 54 36 0.9 2.6 0.02 0.33 0.27 96 958.8
20260506103714 54 72 0.9 2.6 0.06 0.33 0.27 95 958.8
20260506103003 54 54 0.9 2.6 0.07 0.33 0.27 94 958.8
20260506102505 54 37 0.0 1.7 0.08 0.33 0.27 96 958.9
20260506102003 54 30 0.9 1.7 0.10 0.33 0.27 96 958.9
20260506101503 54 65 0.9 1.7 0.11 0.33 0.27 95 958.9
20260506101005 54 99 0.0 1.7 0.12 0.33 0.27 96 959.0
20260506100503 54 108 0.0 1.7 0.14 0.33 0.27 96 959.1
20260506095503 54 65 0.0 2.6 0.15 0.32 0.26 97 959.3
20260506095215 54 72 0.9 2.6 0.16 0.32 0.26 97 959.2
20260506094503 54 87 0.9 1.7 0.17 0.32 0.26 96 959.4
20260506094005 55 181 0.9 3.5 0.16 0.29 0.23 95 959.3
20260506093504 55 193 0.9 3.5 0.16 0.27 0.21 95 959.5
20260506093004 55 69 0.0 2.6 0.17 0.26 0.20 96 959.4
20260506092505 55 85 0.0 1.7 0.17 0.25 0.19 96 959.3
20260506092003 56 103 0.9 5.2 0.16 0.23 0.17 95 959.4
20260506091503 55 95 1.7 6.1 0.16 0.22 0.16 94 959.4
20260506091215 55 93 0.9 6.1 0.15 0.21 0.15 94 959.2
20260506090503 55 94 0.0 2.6 0.13 0.19 0.13 96 959.4
20260506085503 55 99 0.0 1.7 0.11 0.17 0.11 97 959.3
20260506085005 55 82 0.0 0.9 0.10 0.16 0.10 97 959.1
20260506084503 56 87 0.0 1.7 0.09 0.15 0.09 96 959.1
20260506084005 56 85 0.0 1.7 0.07 0.13 0.07 96 959.2
20260506083504 56 101 0.0 0.9 0.05 0.11 0.05 95 959.0
20260506083215 56 74 0.0 1.7 0.03 0.09 0.03 95 959.0
20260506082503 56 74 0.9 1.7 0.02 0.08 0.02 92 958.8
20260506082213 57 85 0.0 1.7 0.02 0.08 0.02 92 958.9
20260506081505 57 208 0.0 2.6 0.00 0.06 0.00 92 958.9
20260506081003 57 105 0.0 1.7 0.00 0.06 0.00 90 958.8
20260506080505 57 135 0.0 0.9 0.00 0.06 0.00 92 958.7